Temp
7 6 5 5 4 4 4 4 3 3 3 2 2 1 1 1 0 0 -0 -1 -1 -2 -2 -2 -1 -2 -1 -2 -3 -3 -3 -3 -3 -3 -3 -3 -3 -3 -4 -4 -4 -4 -4
6 6 6 5 4 4 4 3 3 2 1 1 1 1 1 0 -0 -1 -1 -1 -1 -2 -2 -2 -2 -2 -3 -3 -4 -4 -4 -4 -4 -4 -4 -4 -3 -3 -4 -4 -4 -4 -4
6 5 5 5 4 3 3 2 2 1 1 1 1 1 -0 -1 -1 -1 -1 -1 -1 -1 -2 -2 -3 -4 -4 -5 -5 -6 -6 -6 -6 -5 -5 -5 -5 -5 -4 -4 -4 -4 -4
6 5 5 3 3 2 2 1 1 1 1 1 0 0 -0 -0 -1 -1 -1 -2 -2 -2 -2 -3 -5 -6 -6 -5 -6 -6 -7 -7 -7 -6 -6 -6 -6 -6 -5 -5 -5 -5 -5
5 5 4 3 2 2 2 1 1 1 1 0 1 0 -0 -0 -1 -1 -2 -2 -2 -3 -5 -6 -7 -6 -6 -7 -7 -7 -7 -6 -7 -7 -8 -8 -8 -10 -10 -8 -7 -8 -7
3 3 3 3 2 1 1 1 1 1 1 1 0 -1 -1 -1 -1 -2 -3 -4 -4 -5 -5 -6 -7 -7 -7 -6 -7 -7 -7 -7 -8 -8 -9 -9 -10 -11 -12 -11 -10 -10 -10
2 1 2 2 2 1 2 1 1 -0 -1 -2 -2 -2 -2 -3 -3 -5 -6 -5 -6 -5 -6 -7 -7 -8 -8 -7 -8 -8 -9 -10 -10 -11 -11 -12 -12 -12 -13 -13 -13 -12 -11
1 0 0 1 1 0 -0 -1 -1 -2 -3 -3 -3 -3 -4 -5 -5 -5 -6 -5 -5 -8 -7 -8 -8 -9 -9 -9 -10 -10 -10 -11 -12 -12 -13 -13 -13 -13 -13 -13 -13 -13 -12
0 0 0 0 0 -0 -0 -2 -2 -3 -3 -3 -3 -4 -5 -5 -6 -5 -6 -6 -7 -8 -8 -10 -10 -10 -11 -10 -11 -11 -11 -12 -13 -14 -14 -14 -14 -14 -14 -14 -14 -13 -13
0 0 0 0 -0 -1 -2 -2 -2 -2 -3 -3 -3 -4 -6 -6 -6 -6 -7 -8 -9 -9 -10 -10 -12 -11 -10 -10 -11 -12 -13 -14 -14 -14 -15 -15 -16 -16 -15 -15 -15 -14 -13
-0 -0 0 -0 -1 -2 -2 -2 -2 -3 -3 -3 -4 -5 -6 -7 -7 -7 -8 -9 -9 -9 -11 -11 -11 -12 -11 -12 -12 -13 -13 -14 -15 -15 -15 -15 -16 -16 -16 -16 -16 -15 -15
0 0 -0 -0 -1 -1 -1 -2 -3 -3 -3 -4 -6 -7 -8 -8 -9 -8 -9 -9 -10 -11 -11 -11 -12 -12 -13 -14 -14 -14 -14 -15 -15 -16 -16 -16 -16 -16 -16 -16 -16 -16 -15
0 -0 -1 -1 -1 -1 -2 -2 -3 -3 -5 -6 -7 -8 -8 -9 -10 -10 -10 -11 -11 -11 -11 -12 -13 -13 -14 -15 -15 -15 -15 -15 -16 -17 -17 -17 -17 -17 -17 -17 -17 -17 -17
-1 -1 -2 -1 -1 -1 -2 -3 -4 -5 -6 -7 -8 -8 -9 -9 -9 -10 -11 -11 -11 -12 -12 -14 -14 -14 -15 -16 -16 -15 -15 -16 -16 -17 -17 -17 -17 -17 -17 -17 -17 -17 -17
-2 -2 -1 -1 -2 -3 -3 -4 -6 -7 -8 -9 -9 -9 -10 -10 -10 -12 -12 -13 -13 -13 -13 -14 -15 -15 -16 -16 -16 -15 -16 -16 -17 -17 -17 -18 -18 -18 -18 -18 -18 -18 -18
-2 -2 -2 -2 -3 -3 -4 -6 -7 -9 -9 -9 -10 -10 -10 -10 -11 -11 -12 -13 -13 -13 -13 -14 -15 -15 -16 -16 -16 -16 -16 -17 -17 -17 -18 -18 -18 -19 -19 -19 -19 -19 -19
-2 -2 -2 -3 -3 -4 -6 -8 -9 -9 -10 -10 -10 -11 -11 -11 -12 -12 -13 -13 -14 -14 -14 -15 -15 -16 -17 -16 -16 -16 -16 -17 -17 -18 -18 -18 -18 -19 -19 -19 -19 -19 -19
-2 -2 -3 -4 -5 -7 -8 -9 -9 -9 -10 -10 -10 -11 -11 -12 -12 -12 -13 -13 -14 -14 -15 -15 -16 -16 -16 -16 -16 -16 -16 -17 -17 -18 -18 -18 -18 -19 -19 -20 -20 -20 -20
-3 -3 -5 -6 -8 -9 -9 -9 -10 -10 -10 -11 -11 -12 -12 -12 -13 -13 -13 -14 -14 -15 -16 -16 -16 -16 -16 -16 -16 -16 -16 -17 -17 -17 -18 -18 -19 -19 -20 -20 -20 -20 -20
-5 -6 -7 -8 -9 -9 -10 -10 -10 -11 -11 -11 -12 -12 -12 -13 -13 -13 -14 -14 -15 -15 -16 -16 -16 -16 -16 -16 -16 -16 -16 -17 -17 -17 -18 -18 -19 -19 -20 -20 -20 -20 -20
-6 -7 -8 -9 -9 -10 -10 -10 -11 -11 -12 -12 -12 -12 -13 -13 -13 -14 -14 -15 -16 -15 -16 -16 -16 -16 -16 -16 -17 -16 -16 -16 -17 -17 -18 -18 -19 -19 -20 -20 -20 -20 -20
-7 -8 -9 -10 -10 -10 -10 -10 -11 -11 -12 -12 -13 -13 -13 -14 -14 -14 -15 -16 -16 -16 -16 -16 -16 -16 -16 -17 -17 -16 -17 -17 -17 -17 -18 -18 -19 -19 -19 -20 -20 -20 -20
-8 -9 -10 -9 -10 -10 -10 -11 -11 -12 -12 -13 -13 -13 -14 -14 -14 -15 -15 -15 -16 -16 -16 -16 -16 -17 -17 -17 -17 -17 -17 -17 -17 -18 -18 -18 -18 -18 -19 -19 -19 -19 -20
-9 -9 -9 -9 -10 -10 -10 -11 -11 -12 -13 -13 -14 -14 -14 -14 -15 -15 -15 -16 -16 -16 -16 -16 -16 -17 -17 -17 -17 -17 -16 -17 -17 -18 -18 -18 -18 -18 -18 -19 -19 -19 -19
-9 -9 -9 -9 -10 -10 -11 -11 -12 -13 -13 -13 -14 -14 -14 -15 -15 -15 -15 -16 -16 -16 -16 -16 -17 -17 -17 -17 -17 -17 -17 -17 -18 -18 -18 -18 -18 -19 -18 -18 -19 -19 -19
-9 -9 -9 -10 -10 -11 -11 -12 -12 -12 -13 -13 -14 -15 -15 -15 -15 -16 -16 -16 -16 -16 -16 -17 -17 -17 -17 -17 -17 -17 -17 -18 -18 -18 -18 -18 -19 -18 -18 -18 -18 -19 -19
Height
3168 3171 3171 3172 3173 3173 3173 3172 3171 3168 3165 3165 3164 3163 3163 3161 3158 3156 3153 3150 3147 3144 3141 3135 3129 3124 3119 3114 3110 3106 3103 3100 3095 3090 3087 3085 3085 3084 3084 3079 3078 3076 3074
3167 3169 3170 3172 3174 3173 3171 3169 3168 3165 3162 3161 3162 3160 3158 3155 3153 3150 3146 3144 3140 3135 3130 3124 3118 3113 3108 3104 3100 3096 3092 3089 3085 3079 3074 3067 3071 3073 3071 3068 3065 3063 3062
3169 3170 3171 3171 3170 3168 3167 3165 3164 3164 3162 3160 3158 3156 3154 3151 3149 3145 3142 3137 3130 3124 3119 3113 3108 3102 3097 3092 3088 3085 3081 3076 3073 3070 3065 3057 3052 3049 3053 3056 3053 3050 3048
3170 3170 3169 3168 3167 3166 3164 3162 3161 3160 3159 3157 3154 3152 3149 3146 3141 3137 3132 3125 3121 3114 3108 3102 3097 3092 3087 3083 3078 3074 3069 3065 3060 3056 3052 3047 3042 3035 3030 3032 3035 3036 3035
3171 3171 3169 3167 3165 3163 3161 3160 3160 3157 3154 3151 3149 3145 3141 3136 3132 3127 3122 3116 3109 3102 3095 3091 3086 3082 3077 3071 3066 3062 3058 3053 3047 3042 3037 3034 3029 3025 3020 3012 3013 3013 3016
3167 3168 3166 3161 3159 3158 3156 3155 3154 3150 3146 3143 3138 3135 3131 3126 3120 3115 3109 3104 3098 3093 3088 3083 3077 3072 3066 3061 3056 3050 3045 3040 3035 3030 3026 3021 3017 3012 3008 3003 3000 2997 2999
3162 3161 3160 3159 3158 3155 3153 3151 3147 3142 3139 3136 3131 3126 3121 3115 3109 3104 3100 3092 3086 3081 3074 3070 3065 3058 3053 3049 3044 3039 3033 3027 3022 3018 3013 3010 3007 3003 2999 2994 2990 2987 2990
3157 3155 3153 3152 3150 3148 3146 3143 3140 3137 3133 3128 3123 3118 3113 3106 3100 3094 3088 3082 3076 3069 3061 3056 3051 3047 3041 3036 3032 3025 3020 3016 3010 3006 3002 2999 2995 2992 2989 2986 2983 2979 2978
3153 3151 3149 3148 3146 3145 3143 3139 3137 3133 3128 3122 3116 3111 3105 3099 3092 3086 3080 3073 3065 3060 3054 3049 3043 3037 3032 3027 3020 3014 3007 3002 2998 2995 2991 2987 2984 2982 2980 2977 2976 2972 2967
3152 3150 3148 3145 3143 3140 3138 3134 3131 3127 3121 3116 3109 3102 3096 3089 3082 3076 3069 3062 3057 3051 3046 3040 3035 3028 3023 3017 3009 3002 2997 2993 2990 2985 2982 2978 2974 2972 2969 2967 2966 2964 2961
3149 3147 3144 3141 3138 3136 3133 3129 3125 3119 3113 3108 3100 3093 3086 3079 3072 3064 3059 3056 3051 3044 3037 3030 3025 3019 3014 3006 2999 2993 2988 2983 2980 2977 2972 2969 2965 2962 2960 2958 2955 2953 2950
3146 3143 3141 3138 3134 3132 3128 3123 3117 3111 3104 3095 3088 3082 3076 3069 3062 3055 3050 3045 3041 3034 3027 3020 3014 3010 3004 2997 2989 2984 2981 2976 2972 2968 2964 2960 2956 2952 2949 2946 2944 2943 2942
3142 3140 3137 3133 3129 3123 3118 3113 3108 3102 3093 3087 3081 3074 3066 3060 3053 3047 3040 3034 3029 3023 3017 3010 3007 3001 2995 2990 2983 2978 2974 2969 2964 2959 2954 2949 2943 2939 2937 2934 2931 2931 2930
3138 3134 3130 3124 3119 3114 3109 3103 3096 3090 3084 3078 3072 3064 3057 3050 3042 3036 3030 3025 3019 3014 3008 3003 2998 2993 2989 2982 2976 2971 2966 2961 2955 2949 2943 2936 2930 2925 2921 2919 2917 2917 2918
3131 3127 3122 3115 3110 3105 3100 3093 3087 3081 3075 3068 3062 3054 3046 3039 3032 3026 3020 3016 3011 3006 3002 2996 2992 2987 2982 2975 2970 2964 2958 2952 2945 2938 2931 2924 2917 2913 2909 2906 2904 2904 2905
3123 3117 3111 3106 3101 3095 3090 3085 3079 3073 3066 3061 3053 3045 3037 3029 3022 3017 3011 3006 3002 2999 2994 2990 2986 2981 2975 2968 2963 2957 2951 2944 2936 2927 2919 2912 2906 2901 2898 2896 2894 2893 2893
3115 3109 3105 3099 3094 3088 3082 3076 3071 3065 3059 3051 3043 3036 3029 3022 3015 3009 3003 2999 2995 2992 2988 2983 2980 2974 2967 2962 2956 2950 2943 2934 2926 2917 2908 2901 2896 2892 2888 2885 2884 2884 2883
3107 3103 3098 3092 3086 3080 3074 3069 3063 3057 3051 3043 3036 3028 3021 3014 3007 3000 2995 2992 2989 2985 2982 2978 2972 2967 2961 2955 2949 2942 2933 2925 2917 2909 2902 2895 2890 2885 2880 2877 2876 2875 2875
3100 3094 3088 3082 3077 3072 3067 3061 3056 3049 3043 3035 3026 3019 3012 3006 3000 2994 2989 2986 2982 2979 2976 2971 2966 2961 2956 2950 2943 2934 2926 2918 2910 2903 2895 2888 2882 2878 2875 2871 2869 2868 2868
3089 3085 3080 3076 3071 3066 3060 3053 3046 3039 3032 3025 3017 3011 3005 2998 2993 2988 2984 2980 2976 2974 2970 2966 2960 2954 2949 2943 2936 2927 2919 2911 2903 2897 2890 2882 2876 2872 2869 2866 2863 2862 2861
3084 3079 3074 3070 3065 3058 3051 3044 3037 3030 3023 3016 3009 3003 2997 2991 2986 2982 2978 2975 2971 2969 2965 2960 2954 2949 2944 2937 2930 2921 2912 2904 2897 2891 2884 2878 2873 2868 2865 2861 2858 2856 2854
3077 3072 3068 3063 3057 3050 3042 3035 3028 3021 3015 3008 3001 2995 2990 2984 2980 2975 2972 2969 2966 2963 2959 2954 2949 2945 2939 2933 2926 2917 2908 2900 2893 2888 2882 2876 2871 2866 2862 2858 2854 2851 2849
3069 3065 3061 3055 3049 3042 3034 3026 3019 3013 3007 3001 2994 2988 2983 2978 2973 2970 2967 2964 2961 2957 2953 2949 2945 2940 2935 2929 2923 2915 2905 2897 2891 2886 2880 2875 2870 2865 2861 2856 2851 2848 2846
3062 3058 3052 3046 3040 3033 3025 3018 3011 3004 2998 2993 2987 2982 2977 2973 2969 2966 2963 2960 2956 2952 2948 2944 2940 2935 2930 2925 2919 2913 2904 2896 2890 2885 2880 2875 2870 2865 2861 2857 2853 2849 2847
3054 3048 3043 3037 3030 3023 3017 3010 3002 2996 2990 2985 2980 2975 2971 2967 2964 2962 2958 2955 2952 2948 2943 2939 2935 2931 2927 2921 2915 2909 2901 2894 2888 2883 2879 2875 2871 2867 2862 2858 2854 2851 2848
3045 3040 3035 3028 3021 3014 3008 3000 2993 2987 2981 2976 2972 2969 2965 2962 2959 2956 2953 2949 2946 2942 2939 2935 2931 2927 2923 2918 2912 2906 2900 2893 2887 2882 2878 2874 2871 2868 2864 2860 2856 2852 2849
Wind_Speed
22 19 18 17 14 16 18 18 19 24 21 20 13 15 22 26 29 32 32 30 33 36 46 45 46 45 48 47 42 41 40 40 39 42 42 41 38 38 38 41 42 43 43
22 21 20 17 16 20 21 20 15 15 14 13 18 23 25 28 28 30 36 41 41 44 42 46 48 49 45 42 41 42 43 42 42 45 46 50 47 42 41 43 46 46 46
14 17 16 16 15 10 7 7 7 10 15 20 24 26 27 29 34 36 36 36 41 44 47 49 47 43 42 43 43 42 44 46 46 46 48 51 53 54 49 47 48 49 50
10 12 14 11 4 6 9 12 13 17 21 24 26 28 31 34 37 38 38 38 43 48 49 45 41 41 43 46 47 46 45 46 47 47 47 47 49 53 59 57 53 51 51
9 10 14 16 16 18 19 18 21 24 23 24 26 26 29 29 32 37 39 45 48 49 49 42 40 43 44 41 43 43 44 46 47 47 47 47 48 49 49 58 57 55 50
7 7 8 8 10 16 19 17 14 20 22 27 34 36 39 42 44 46 50 48 50 49 56 44 43 42 44 44 44 46 49 51 51 49 47 46 46 47 45 48 52 49 48
16 11 12 17 18 25 20 24 27 30 32 39 42 43 46 50 51 47 48 40 52 43 52 43 43 45 48 48 50 52 53 50 47 45 45 43 40 43 43 44 43 43 41
13 9 15 18 21 23 27 28 28 29 35 41 44 46 47 43 46 53 54 48 50 51 46 46 51 53 50 51 51 50 51 47 44 43 44 45 43 42 41 40 40 41 40
10 13 15 19 24 24 29 28 28 32 37 41 44 46 43 43 50 49 55 55 54 42 42 46 46 46 41 43 45 45 45 44 41 38 36 35 34 34 32 31 33 31 33
13 15 20 25 26 24 21 26 36 44 43 46 49 48 45 43 44 45 45 41 40 45 47 46 39 42 45 49 47 46 42 33 31 30 28 28 29 28 29 30 30 33 39
15 18 22 24 25 24 31 37 45 43 46 52 46 40 40 42 44 44 42 42 47 41 49 49 52 41 42 40 41 40 36 29 27 28 30 31 31 30 30 32 32 36 40
21 22 25 30 32 36 41 44 41 44 49 43 40 40 41 42 42 45 44 44 47 48 50 50 31 37 37 37 36 30 29 30 32 33 35 36 37 38 38 37 34 36 40
22 25 27 30 37 43 45 45 46 47 39 39 38 38 40 41 43 46 50 48 42 43 44 35 29 36 37 40 27 28 32 33 34 38 41 43 44 44 41 41 41 38 36
24 26 30 41 47 48 46 47 46 40 39 38 38 41 43 43 42 43 43 39 38 45 35 27 33 36 38 34 31 33 35 36 40 43 46 47 46 44 42 42 42 40 38
24 30 39 44 45 46 47 44 41 41 40 40 42 44 44 43 39 38 42 45 44 43 39 29 35 37 37 33 34 36 37 41 45 46 47 46 45 41 39 37 37 36 36
31 39 41 43 46 46 43 41 41 41 41 43 44 42 44 44 40 39 41 41 34 36 29 31 35 35 33 34 35 36 40 44 45 45 44 42 41 38 34 32 33 34 34
40 41 43 44 43 40 41 41 41 41 43 45 45 43 44 42 38 36 34 30 25 21 26 31 32 34 34 35 35 39 42 44 44 44 40 37 34 31 29 27 28 29 32
39 43 41 39 39 40 40 43 43 44 45 46 46 42 42 38 36 34 28 24 24 22 26 28 33 35 34 34 37 40 44 44 43 36 33 33 31 28 26 24 23 24 26
40 39 37 38 39 41 43 46 46 46 46 48 46 43 41 37 34 31 27 23 22 22 26 30 36 35 32 33 37 41 43 43 36 30 30 31 29 25 22 23 21 21 20
34 34 35 37 40 43 46 47 49 49 50 49 46 43 39 35 32 28 24 23 23 26 30 34 36 33 32 34 37 42 41 39 32 29 29 27 24 21 20 21 21 19 18
33 34 34 37 41 46 47 48 50 50 48 47 43 41 36 33 30 26 25 25 25 27 32 33 31 31 31 34 36 39 41 37 31 30 29 25 21 19 18 19 19 19 16
31 33 35 38 44 45 47 48 48 48 46 43 40 37 33 31 27 26 25 24 25 26 27 27 29 28 29 31 33 36 38 33 29 28 27 23 20 19 19 18 17 16 14
31 33 37 41 42 43 44 46 46 45 43 40 38 35 31 27 25 24 21 21 23 24 23 26 26 24 27 28 30 33 34 28 26 25 24 22 20 18 17 18 17 12 6
32 37 39 41 42 43 44 44 43 43 40 37 35 31 29 24 20 19 21 21 22 22 24 25 23 23 25 25 27 30 30 26 23 22 21 20 19 17 18 18 16 11 7
37 38 40 42 44 43 41 41 43 39 37 34 30 28 26 22 20 20 21 21 21 23 24 24 22 21 23 24 26 29 30 29 24 21 20 19 16 16 18 16 15 14 11
37 39 41 43 41 39 38 41 41 39 38 31 25 25 24 22 21 21 22 23 22 22 23 23 21 21 22 23 24 26 28 29 25 21 18 17 14 16 18 18 17 16 15
Wind_Direction
215 214 229 231 228 229 250 256 260 279 305 312 291 295 297 299 291 294 288 276 278 287 295 301 303 301 304 303 300 300 295 290 286 285 281 279 277 276 275 273 273 273 273
205 217 234 233 233 239 250 277 301 312 309 283 283 288 290 292 286 282 282 300 301 301 301 300 302 304 300 298 298 298 297 293 289 288 287 287 280 275 273 272 271 269 268
202 219 246 268 274 276 286 296 306 296 290 289 292 294 289 288 291 292 296 295 294 298 301 300 299 298 300 302 300 297 296 294 291 290 290 290 287 287 279 273 270 269 268
235 272 301 311 267 253 273 292 299 304 297 291 290 295 296 294 293 293 294 296 300 304 304 301 302 303 302 298 294 292 291 292 291 291 291 291 290 290 289 284 279 270 267
279 284 296 290 277 272 275 278 291 296 297 298 296 294 299 300 296 301 305 305 305 310 312 302 303 299 295 295 295 290 288 291 295 295 293 291 288 286 285 283 283 281 276
319 332 342 296 274 284 293 295 316 315 304 311 312 313 312 311 312 311 312 308 306 308 311 296 303 296 293 294 295 297 300 299 297 295 293 291 290 290 286 281 281 282 284
322 339 334 354 328 329 311 312 313 322 322 321 317 317 318 317 313 311 309 296 302 296 306 315 308 309 308 305 304 303 302 300 297 295 292 290 286 282 286 284 287 284 279
318 300 312 335 330 322 318 315 317 318 317 319 319 317 314 310 310 303 310 294 300 311 313 321 314 309 309 309 310 309 306 299 292 288 287 287 288 286 284 283 287 288 284
245 289 308 312 312 307 316 319 307 310 314 314 311 308 304 298 301 299 300 296 301 304 315 318 308 312 313 314 313 308 302 294 291 291 290 288 286 283 284 282 272 279 275
246 274 296 301 302 305 300 301 308 306 305 310 307 302 299 298 298 301 306 311 303 310 318 305 303 300 304 315 318 313 306 294 292 294 296 296 290 286 279 272 273 262 269
253 276 287 294 294 292 296 302 311 308 302 301 305 304 306 307 308 310 312 309 306 297 311 310 302 310 311 315 316 316 307 306 307 303 301 298 296 292 285 277 272 265 270
268 276 285 290 289 292 295 306 305 304 304 311 314 315 313 312 310 308 307 304 303 309 301 314 304 317 316 320 325 315 309 309 308 307 305 301 296 292 289 285 278 271 266
270 282 285 292 304 314 311 308 305 308 313 316 316 313 313 312 306 304 302 309 306 313 303 300 319 318 321 325 324 314 312 311 311 311 309 306 301 295 289 283 279 274 271
268 277 287 306 316 314 310 311 313 317 321 320 318 318 316 315 310 303 304 310 309 318 300 322 322 322 320 323 321 316 315 316 314 311 309 306 302 298 293 283 277 274 269
276 294 307 313 313 311 314 315 319 324 325 325 324 321 318 314 308 302 297 298 311 312 306 319 318 320 317 322 318 318 318 317 315 313 310 306 302 299 292 287 281 274 267
297 314 317 316 314 316 318 321 326 326 324 325 324 322 317 318 313 309 304 307 308 306 315 308 315 313 321 322 319 318 319 317 315 314 310 306 304 300 292 283 273 271 266
313 315 314 312 313 317 322 327 325 323 325 327 324 321 318 318 314 312 308 312 309 318 303 312 311 323 322 317 316 318 320 321 319 316 313 310 309 307 301 285 275 267 264
312 311 308 313 320 324 324 323 323 324 323 322 320 320 321 321 319 318 315 314 314 309 307 308 322 323 317 316 316 323 324 323 323 318 313 309 309 305 299 296 283 275 268
304 308 318 322 323 322 320 320 321 320 323 321 321 322 322 320 319 318 317 313 317 317 316 317 320 317 315 316 323 325 326 326 324 321 318 316 313 307 299 295 294 286 279
314 317 319 322 320 316 317 319 319 321 321 320 321 321 319 319 317 313 311 309 314 318 311 311 315 314 318 321 327 327 328 328 328 326 328 326 321 314 304 296 296 289 280
312 318 323 320 314 313 313 315 315 316 318 318 321 321 320 318 317 312 305 308 310 303 304 312 313 316 320 324 328 329 331 332 332 335 339 337 333 325 315 308 306 303 296
318 321 318 311 308 310 311 312 314 315 316 319 321 321 319 316 313 310 307 302 299 304 312 311 314 318 320 325 329 334 335 334 334 339 341 341 342 340 336 331 322 312 301
319 314 306 306 309 310 312 313 314 314 317 320 321 320 316 315 314 314 315 314 312 310 309 313 317 320 323 327 333 339 339 337 337 339 342 345 346 349 352 351 345 345 345
307 307 311 312 313 313 314 314 315 317 318 319 317 315 314 314 314 315 315 312 310 312 314 318 322 323 325 328 333 341 346 348 342 339 341 344 348 357 4 2 3 2 2
309 312 313 314 315 315 314 315 318 319 316 315 312 312 313 312 312 311 313 312 311 313 316 320 324 320 324 329 336 341 351 355 348 343 343 345 351 6 2 8 14 17 13
310 311 315 316 315 315 317 321 320 319 316 312 311 312 310 309 308 311 315 315 314 316 318 320 318 318 324 328 334 341 352 355 351 348 346 346 352 1 6 13 18 21 23